Regional Weather Roundup
Issued by NWS Glasgow, MT

Home | Current Version | Previous Version | Text Only | Print | Product List | Glossary On
Versions: 1 2 3 4 5 6 7 8 9 10 11 12 13 14 15 16 17 18 19 20 21 22 23 24 25 26 27 28 29 30 31 32 33 34 35 36 37 38 39 40 41 42 43 44 45 46 47 48 49 50
000
ASUS45 KGGW 310615
RWRGGW
HOURLY REGIONAL WEATHER ROUNDUP FOR NORTHEAST MONTANA
NATIONAL WEATHER SERVICE GLASGOW MONTANA
1200 AM MDT TUE MAY 31 2016

NOTE: "FAIR" INDICATES FEW OR NO CLOUDS BELOW 12,000 FEET WITH NO
SIGNIFICANT WEATHER AND/OR OBSTRUCTIONS TO VISISBILITY.

NORTHEAST MONTANA


CITY           SKY/WX    TMP DP  RH WIND       PRES   REMARKS
GLASGOW        CLOUDY    49  44  83 W12       29.92F
6HR MIN TEMP:  48; 6HR MAX TEMP:  59;

PLENTYWOOD       N/A     53  51  93 NE3         N/A
WOLF POINT     CLOUDY    51  44  77 W12       29.91F
JORDAN           N/A     46  44  93 W13       29.99F
WINNETT          N/A     49  40  71 W22G33      N/A
SIDNEY         PTCLDY    49  43  80 W18       29.89F
GLENDIVE       MOCLDY    46  41  81 W10       29.97S
MALTA            N/A     50  48  93 W13G22      N/A
SCOBEY           N/A     51  42  71 W5        29.87F
OPHEIM           N/A     46  45  93 W9        29.75F

FORT PECK REPORTS


CITY           SKY/WX    TMP DP  RH WIND       PRES   REMARKS
FORT PECK        N/A     48  45  89 W15G23      N/A
THE PINES        N/A     48  42  80 W10         N/A

SOUTHEAST MONTANA


CITY           SKY/WX    TMP DP  RH WIND       PRES   REMARKS
BILLINGS       PTCLDY    49  37  63 W13       30.14R
MILES CITY     CLOUDY    51  38  60 W21G28    30.01F
BAKER          PTCLDY    45  42  89 W7        29.97F
LIVINGSTON     PTCLDY    46  33  60 W10       30.18S

CENTRAL MONTANA


CITY           SKY/WX    TMP DP  RH WIND       PRES   REMARKS
HAVRE          CLOUDY    49  43  80 NW20G26   30.10S
LEWISTOWN      CLOUDY    45  39  79 W9        30.17S
GREAT FALLS    CLOUDY    44  38  79 N3        30.22R
CUT BANK       CLOUDY    44  39  82 NW14      30.23R
HELENA         CLEAR     48  36  63 W9        30.20R
BUTTE          CLEAR     42  28  57 S10       30.22R
BOZEMAN        CLEAR     45  35  68 SW6       30.18R

WESTERN MONTANA


CITY           SKY/WX    TMP DP  RH WIND       PRES   REMARKS
MISSOULA       PTCLDY    47  35  63 N5        30.18R
KALISPELL      NOT AVBL

NORTH DAKOTA


CITY           SKY/WX    TMP DP  RH WIND       PRES   REMARKS
WILLISTON      CLOUDY    53  50  89 SW5       29.86F
DICKINSON      CLEAR     46  43  89 W13       29.88S
MINOT          RAIN      58  55  90 N9        29.81F FOG
BISMARCK       CLOUDY    56  55  97 W14       29.82S

SOUTHERN SASKATCHEWAN


CITY           SKY/WX    TMP DP  RH WIND       PRES   REMARKS
REGINA         LGT RAIN  54  52  94 NE9       29.92F
ESTEVAN        LGT RAIN  54  52  94 N13       29.85F
SWIFT CURRENT  LGT RAIN  50  50 100 N12       29.97S FOG




USA.gov is the U.S. government's official web portal to all federal, state and local government web resources and services.